• In Hungary
  • List of Countries
  • For 7 days
  • Water Temperature
  • Satellite Maps
  • Weather Map
  • News
  • Weather Widgets
  • user-avatar
    Login

    Hourly Weather Voronino-Pashnya

    Today, 23 July, Monday

    Time Temperature Precipitation Wind Pressure Humidity
    00:00 +12°C° 0 mm 5 mps 740 mmHg 91%
    01:00 +12°C° 0.2 mm 5 mps 740 mmHg 90%
    02:00 +10°C° 0.2 mm 5 mps 740 mmHg 89%
    03:00 +10°C° 0.2 mm 5 mps 740 mmHg 88%
    04:00 +10°C° 0.3 mm 5 mps 740 mmHg 89%
    05:00 +10°C° 0.3 mm 5 mps 740 mmHg 90%
    06:00 +12°C° 0 mm 5 mps 740 mmHg 91%
    07:00 +12°C° 0 mm 5 mps 740 mmHg 87%
    08:00 +13°C° 0 mm 6 mps 740 mmHg 84%
    09:00 +13°C° 0 mm 6 mps 740 mmHg 81%
    10:00 +13°C° 0.4 mm 6 mps 740 mmHg 82%
    11:00 +13°C° 0.4 mm 5 mps 740 mmHg 84%
    12:00 +14°C° 0 mm 6 mps 740 mmHg 81%
    13:00 +14°C° 0.5 mm 5 mps 740 mmHg 83%
    14:00 +14°C° 0.5 mm 5 mps 740 mmHg 86%
    15:00 +14°C° 0.5 mm 4 mps 739 mmHg 88%
    16:00 +15°C° 0.3 mm 4 mps 739 mmHg 85%
    17:00 +17°C° 0.3 mm 4 mps 739 mmHg 82%
    18:00 +18°C° 0.3 mm 4 mps 739 mmHg 79%
    19:00 +17°C° 0.1 mm 4 mps 739 mmHg 79%
    20:00 +17°C° 0.1 mm 4 mps 739 mmHg 78%
    21:00 +15°C° 0.1 mm 4 mps 738 mmHg 78%
    22:00 +15°C° 0 mm 4 mps 738 mmHg 73%
    23:00 +15°C° 0 mm 4 mps 738 mmHg 67%

    Tomorrow, 24 July, Tuesday

    Time Temperature Precipitation Wind Pressure Humidity
    00:00 +15°C° 0 mm 4 mps 738 mmHg 62%
    01:00 +15°C° 0 mm 4 mps 737 mmHg 58%
    02:00 +15°C° 0 mm 4 mps 737 mmHg 53%
    03:00 +15°C° 0 mm 4 mps 737 mmHg 49%
    04:00 +15°C° 0 mm 4 mps 737 mmHg 50%
    05:00 +15°C° 0 mm 4 mps 737 mmHg 52%
    06:00 +14°C° 0 mm 3 mps 737 mmHg 54%
    07:00 +16°C° 0.1 mm 3 mps 737 mmHg 57%
    08:00 +16°C° 0.1 mm 3 mps 737 mmHg 60%
    09:00 +16°C° 0.1 mm 2 mps 738 mmHg 63%
    10:00 +17°C° 0.6 mm 2 mps 738 mmHg 61%
    11:00 +18°C° 0.6 mm 2 mps 738 mmHg 60%
    12:00 +19°C° 0.6 mm 2 mps 738 mmHg 58%
    13:00 +19°C° 1.1 mm 2 mps 739 mmHg 61%
    14:00 +19°C° 1.1 mm 2 mps 739 mmHg 65%
    15:00 +19°C° 1.1 mm 2 mps 739 mmHg 68%
    16:00 +18°C° 0.4 mm 2 mps 739 mmHg 72%
    17:00 +17°C° 0.4 mm 2 mps 740 mmHg 77%
    18:00 +17°C° 0.4 mm 2 mps 740 mmHg 81%
    19:00 +16°C° 0 mm 2 mps 740 mmHg 84%
    20:00 +15°C° 0 mm 2 mps 740 mmHg 87%
    21:00 +14°C° 0 mm 2 mps 740 mmHg 90%
    22:00 +14°C° 0 mm 2 mps 741 mmHg 87%
    23:00 +14°C° 0 mm 2 mps 741 mmHg 85%

    Day after tomorrow, 25 July, Wednesday

    Time Temperature Precipitation Wind Pressure Humidity
    00:00 +14°C° 0 mm 2 mps 741 mmHg 83%
    01:00 +14°C° 0 mm 2 mps 741 mmHg 80%
    02:00 +13°C° 0 mm 2 mps 741 mmHg 78%
    03:00 +12°C° 0 mm 2 mps 741 mmHg 75%
    04:00 +12°C° 0 mm 2 mps 741 mmHg 74%
    05:00 +12°C° 0 mm 2 mps 742 mmHg 73%
    06:00 +12°C° 0 mm 2 mps 742 mmHg 72%
    07:00 +14°C° 0 mm 3 mps 742 mmHg 65%
    08:00 +17°C° 0 mm 3 mps 743 mmHg 57%
    09:00 +19°C° 0 mm 3 mps 743 mmHg 50%
    10:00 +20°C° 0 mm 4 mps 743 mmHg 46%
    11:00 +21°C° 0 mm 4 mps 743 mmHg 43%
    12:00 +22°C° 0 mm 4 mps 743 mmHg 39%
    13:00 +22°C° 0 mm 4 mps 743 mmHg 38%
    14:00 +22°C° 0 mm 4 mps 744 mmHg 38%
    15:00 +23°C° 0 mm 4 mps 744 mmHg 38%
    16:00 +22°C° 0 mm 3 mps 744 mmHg 41%
    17:00 +22°C° 0 mm 3 mps 744 mmHg 44%
    18:00 +22°C° 0 mm 3 mps 744 mmHg 47%
    19:00 +20°C° 0 mm 2 mps 744 mmHg 53%
    20:00 +18°C° 0 mm 2 mps 745 mmHg 58%
    21:00 +15°C° 0 mm 2 mps 745 mmHg 64%
    22:00 +15°C° 0 mm 2 mps 745 mmHg 65%
    23:00 +14°C° 0 mm 2 mps 745 mmHg 67%

    26 July, Thursday

    Time Temperature Precipitation Wind Pressure Humidity
    00:00 +13°C° 0 mm 2 mps 745 mmHg 68%
    01:00 +13°C° 0 mm 2 mps 745 mmHg 67%
    02:00 +13°C° 0 mm 2 mps 745 mmHg 66%
    03:00 +13°C° 0 mm 2 mps 745 mmHg 64%
    04:00 +13°C° 0.1 mm 2 mps 745 mmHg 68%
    05:00 +13°C° 0.1 mm 2 mps 745 mmHg 72%
    06:00 +13°C° 0.1 mm 2 mps 745 mmHg 76%
    07:00 +14°C° 0 mm 2 mps 745 mmHg 74%
    08:00 +15°C° 0 mm 2 mps 745 mmHg 73%
    09:00 +16°C° 0 mm 3 mps 744 mmHg 71%
    10:00 +18°C° 0.1 mm 3 mps 744 mmHg 68%
    11:00 +20°C° 0.1 mm 3 mps 744 mmHg 64%
    12:00 +22°C° 0.1 mm 3 mps 744 mmHg 61%
    13:00 +22°C° 1 mm 3 mps 743 mmHg 68%
    14:00 +22°C° 1 mm 3 mps 743 mmHg 75%
    15:00 +22°C° 1 mm 3 mps 743 mmHg 82%
    16:00 +21°C° 0.8 mm 3 mps 743 mmHg 84%
    17:00 +21°C° 0.8 mm 2 mps 743 mmHg 86%
    18:00 +21°C° 0.8 mm 2 mps 743 mmHg 88%
    19:00 +19°C° 0.8 mm 2 mps 743 mmHg 91%
    20:00 +18°C° 0.8 mm 2 mps 743 mmHg 93%
    21:00 +17°C° 0.8 mm 2 mps 743 mmHg 95%
    22:00 +16°C° 0.7 mm 3 mps 743 mmHg 96%
    23:00 +16°C° 0.7 mm 3 mps 743 mmHg 97%

    27 July, Friday

    Time Temperature Precipitation Wind Pressure Humidity
    00:00 +14°C° 0.7 mm 3 mps 743 mmHg 97%
    01:00 +14°C° 0.8 mm 3 mps 743 mmHg 97%
    02:00 +13°C° 0.8 mm 3 mps 743 mmHg 97%
    03:00 +13°C° 0.8 mm 3 mps 743 mmHg 98%
    04:00 +13°C° 0.2 mm 3 mps 743 mmHg 97%
    05:00 +13°C° 0.2 mm 3 mps 743 mmHg 97%
    06:00 +13°C° 0.2 mm 3 mps 744 mmHg 97%
    07:00 +13°C° 0.3 mm 3 mps 744 mmHg 97%
    08:00 +13°C° 0.3 mm 3 mps 744 mmHg 97%
    09:00 +13°C° 0.3 mm 3 mps 744 mmHg 97%
    10:00 +13°C° 0.3 mm 3 mps 744 mmHg 95%
    11:00 +14°C° 0.3 mm 3 mps 744 mmHg 94%
    12:00 +14°C° 0.3 mm 3 mps 744 mmHg 92%
    13:00 +16°C° 0.4 mm 3 mps 744 mmHg 90%
    14:00 +17°C° 0.4 mm 3 mps 744 mmHg 87%
    15:00 +18°C° 0.4 mm 2 mps 744 mmHg 84%
    16:00 +18°C° 1 mm 2 mps 744 mmHg 86%
    17:00 +18°C° 1 mm 2 mps 745 mmHg 88%
    18:00 +18°C° 1 mm 2 mps 745 mmHg 90%
    19:00 +17°C° 0.3 mm 2 mps 745 mmHg 92%
    20:00 +16°C° 0.3 mm 2 mps 745 mmHg 93%
    21:00 +15°C° 0.3 mm 2 mps 745 mmHg 95%
    22:00 +14°C° 0.1 mm 2 mps 745 mmHg 95%
    23:00 +14°C° 0.1 mm 2 mps 745 mmHg 96%

    28 July, Saturday

    Time Temperature Precipitation Wind Pressure Humidity
    00:00 +13°C° 0.1 mm 2 mps 745 mmHg 96%
    01:00 +13°C° 0 mm 2 mps 745 mmHg 96%
    02:00 +12°C° 0 mm 1 mps 744 mmHg 96%
    03:00 +12°C° 0 mm 1 mps 744 mmHg 96%
    04:00 +12°C° 0 mm 1 mps 745 mmHg 96%
    05:00 +13°C° 0 mm 1 mps 745 mmHg 96%
    06:00 +14°C° 0 mm 1 mps 745 mmHg 95%
    07:00 +15°C° 0 mm 1 mps 745 mmHg 89%
    08:00 +18°C° 0 mm 1 mps 745 mmHg 82%
    09:00 +20°C° 0 mm 1 mps 745 mmHg 75%
    10:00 +22°C° 0.3 mm 1 mps 745 mmHg 69%
    11:00 +23°C° 0.3 mm 2 mps 745 mmHg 62%
    12:00 +25°C° 0.3 mm 2 mps 745 mmHg 55%
    13:00 +25°C° 0 mm 2 mps 745 mmHg 53%
    14:00 +25°C° 0 mm 2 mps 745 mmHg 52%
    15:00 +25°C° 0 mm 2 mps 745 mmHg 50%
    16:00 +24°C° 0.2 mm 2 mps 745 mmHg 55%
    17:00 +23°C° 0.2 mm 2 mps 745 mmHg 61%
    18:00 +23°C° 0.2 mm 1 mps 745 mmHg 66%
    19:00 +21°C° 0.7 mm 1 mps 745 mmHg 74%
    20:00 +18°C° 0.7 mm 2 mps 745 mmHg 81%
    21:00 +16°C° 0.7 mm 2 mps 745 mmHg 89%
    22:00 +16°C° 0.5 mm 1 mps 745 mmHg 90%
    23:00 +15°C° 0.5 mm 1 mps 745 mmHg 91%
    Show more